• Join FlightAware (Why Join?)
  • Login
  • US Flag GB Flag 
18:30 EDT


 

Airport Tracker/Info


-or-


 

Live Flight TrackerFlight Track Log ✈ PAC958 ✈ 11-May-2013 ✈ PANC - ZSPD / PVG

Flight Track Log - Related Links

Times and Time Zones

All times are in EDT time to prevent confusion due to time zone crossing. See the PAC958 flight status page for this flight to view local times or setup timezone preferences in your user account.

Time Position Orientation Groundspeed Altitude Reporting Facility
EDT Latitude Longitude Course Direction KTS MPH feet Rate Location/Type
08:50 61.1840 -150.0020 160° South  Level FlightAware
08:54 61.2080 -150.0200 343° North 161 185 1,400 360 Climbing FlightAware
08:54 61.2200 -150.0390 323° Northwest 172 198 1,900 1,680 Climbing FlightAware
08:55 61.2370 -150.0760 314° West 185 213 2,800 1,920 Climbing FlightAware
08:55 61.2400 -150.0930 290° West 184 212 3,200 2,160 Climbing FlightAware
08:55 61.2420 -150.1280 277° West 186 214 3,900 1,320 Climbing FlightAware
08:56 61.2460 -150.2410 274° West 256 295 4,900 1,620 Climbing FlightAware
08:57 61.2480 -150.3380 272° West 276 318 6,400 2,820 Climbing FlightAware
08:57 61.2510 -150.4290 274° West 284 327 8,200 3,000 Climbing FlightAware
08:58 61.2540 -150.5570 273° West 296 341 10,400 2,100 Climbing FlightAware
08:59 61.2580 -150.7080 273° West 350 403 11,600 1,500 Climbing FlightAware
09:00 61.2620 -150.8680 273° West 395 455 12,800 2,220 Climbing FlightAware
09:00 61.2660 -151.0470 273° West 411 473 15,000 2,880 Climbing FlightAware
09:01 61.2680 -151.1660 272° West 419 482 16,400 2,760 Climbing FlightAware
09:02 61.2730 -151.4050 273° West 434 499 19,200 2,760 Climbing FlightAware
09:03 61.2770 -151.5970 273° West 442 509 21,300 2,640 Climbing FlightAware
09:03 61.2780 -151.7020 271° West 448 516 22,300 2,280 Climbing FlightAware
09:04 61.2820 -151.9000 272° West 458 527 24,000 2,160 Climbing FlightAware
09:04 61.2840 -152.0780 271° West 467 537 25,400 2,100 Climbing FlightAware
09:05 61.2850 -152.2160 271° West 473 544 26,500 1,920 Climbing FlightAware
09:06 61.2850 -152.4180 270° West 484 557 27,800 2,040 Climbing FlightAware
09:07 61.2860 -152.7440 271° West 478 550 30,500 2,280 Climbing FlightAware
09:08 61.2860 -152.9500 270° West 470 541 32,200 2,100 Climbing FlightAware
09:08 61.2860 -153.1040 270° West 465 535 33,300 1,620 Climbing FlightAware
09:09 61.2860 -153.2610 270° West 465 535 34,100 1,260 Climbing FlightAware
09:09 61.2850 -153.4150 269° West 466 536 34,800 960 Climbing FlightAware
09:10 61.2840 -153.5920 269° West 471 542 35,300 900 Climbing FlightAware
09:11 61.2830 -153.7750 269° West 472 543 36,000 420 Climbing FlightAware
09:11 61.2820 -153.9990 270° West 473 544 36,000  Level FlightAware
09:12 61.2800 -154.1800 269° West 472 543 36,000  Level FlightAware
09:13 61.2790 -154.2970 269° West 471 542 36,000  Level FlightAware
09:13 61.2760 -154.5250 269° West 471 542 36,000  Level FlightAware
09:14 61.2750 -154.6450 269° West 471 542 36,000  Level FlightAware
09:14 61.2720 -154.7910 268° West 471 542 36,000  Level FlightAware
09:15 61.2700 -154.9450 269° West 471 542 36,000  Level FlightAware
09:16 61.2660 -155.1380 268° West 471 542 36,000  Level FlightAware
09:16 61.2640 -155.2530 268° West 471 542 36,000  Level FlightAware
09:17 61.2620 -155.4070 269° West 471 542 36,000  Level FlightAware
09:18 61.2580 -155.6380 268° West 471 542 36,000  Level FlightAware
09:19 61.2550 -155.8300 268° West 471 542 36,000  Level FlightAware
09:20 61.2520 -156.0230 268° West 471 542 36,000  Level FlightAware
09:20 61.2500 -156.1380 268° West 471 542 36,000  Level FlightAware
09:21 61.2460 -156.3690 268° West 471 542 36,000  Level FlightAware
09:22 61.2430 -156.5230 268° West 471 542 36,000  Level FlightAware
09:23 61.2390 -156.7540 268° West 471 542 36,000  Level FlightAware
09:24 61.2370 -156.9080 269° West 471 542 36,000  Level FlightAware
09:24 61.1833 -157.4500 269° West 470 541 36,000  Level Anchorage Center
09:25 61.1667 -157.7167 263° West 480 552 36,000  Level Anchorage Center
09:26 61.1500 -157.9833 263° West 470 541 36,000  Level Anchorage Center
09:27 61.1333 -158.2500 263° West 470 541 36,000  Level Anchorage Center
09:28 61.1167 -158.5333 263° West 470 541 36,000  Level Anchorage Center
09:29 61.1000 -158.8000 263° West 460 529 36,000  Level Anchorage Center
09:30 61.0833 -159.0667 263° West 470 541 36,000  Level Anchorage Center
09:31 61.0667 -159.3333 263° West 470 541 36,000  Level Anchorage Center
09:32 61.0500 -159.6000 263° West 460 529 36,000  Level Anchorage Center
09:33 61.0333 -159.8667 263° West 470 541 36,000  Level Anchorage Center
09:34 61.0167 -160.1333 263° West 470 541 36,000  Level Anchorage Center
09:35 60.9833 -160.4000 256° West 460 529 36,000  Level Anchorage Center
09:36 60.9667 -160.6667 263° West 470 541 36,000  Level Anchorage Center
09:37 60.9500 -160.9000 262° West 470 541 36,000  Level Anchorage Center
09:38 60.9167 -161.1667 256° West 470 541 36,000  Level Anchorage Center
09:39 60.9000 -161.4667 264° West 460 529 36,000  Level Anchorage Center
09:40 60.8833 -161.7333 263° West 470 541 36,000  Level Anchorage Center
09:41 60.8500 -162.0000 256° West 470 541 36,000  Level Anchorage Center
09:42 60.8333 -162.2500 262° West 480 552 36,000  Level Anchorage Center
09:43 60.8000 -162.5333 257° West 470 541 36,000  Level Anchorage Center
09:44 60.7833 -162.7833 262° West 470 541 36,000  Level Anchorage Center
09:45 60.7500 -163.0500 256° West 470 541 36,000  Level Anchorage Center
09:46 60.7167 -163.3167 256° West 470 541 36,000  Level Anchorage Center
09:47 60.7000 -163.5833 263° West 460 529 36,000  Level Anchorage Center
09:48 60.6667 -163.8333 255° West 460 529 36,000  Level Anchorage Center
09:49 60.6333 -164.1000 256° West 470 541 36,000  Level Anchorage Center
09:50 60.6167 -164.3667 263° West 460 529 36,000  Level Anchorage Center
09:51 60.5833 -164.6167 255° West 470 541 36,000  Level Anchorage Center
09:52 60.5500 -164.8833 256° West 470 541 36,000  Level Anchorage Center
09:53 60.5167 -165.1500 256° West 470 541 36,000  Level Anchorage Center
09:54 60.4833 -165.4000 255° West 460 529 36,000  Level Anchorage Center
09:55 60.4500 -165.6500 255° West 460 529 36,000  Level Anchorage Center
09:56 60.4333 -165.9167 263° West 460 529 36,000  Level Anchorage Center
09:57 60.4000 -166.1667 255° West 470 541 36,000  Level Anchorage Center
09:58 60.3833 -166.2667 251° West 470 541 36,000  Level Anchorage Center
09:59 60.3500 -166.5333 256° West 470 541 36,000  Level Anchorage Center
10:00 60.3167 -166.7833 255° West 460 529 36,000  Level Anchorage Center
10:01 60.2833 -167.0333 255° West 470 541 36,000  Level Anchorage Center
10:02 60.2500 -167.3000 256° West 470 541 36,000  Level Anchorage Center
10:03 60.2167 -167.5500 255° West 460 529 36,000  Level Anchorage Center
10:04 60.1833 -167.8000 255° West 470 541 36,000  Level Anchorage Center
10:05 60.1333 -168.0500 248° West 470 541 36,000  Level Anchorage Center
10:06 60.1000 -168.3000 255° West 460 529 36,000  Level Anchorage Center
10:07 60.0667 -168.5667 256° West 470 541 36,000  Level Anchorage Center
10:08 60.0333 -168.8000 254° West 470 541 36,000  Level Anchorage Center
10:09 60.0000 -169.0500 255° West 460 529 36,000  Level Anchorage Center
10:10 59.9500 -169.3167 250° West 470 541 36,000  Level Anchorage Center
10:11 59.9167 -169.5500 254° West 470 541 36,000  Level Anchorage Center
10:12 59.8833 -169.8000 255° West 470 541 36,000  Level Anchorage Center
10:13 59.8500 -170.0500 255° West 460 529 36,000  Level Anchorage Center
10:14 59.8000 -170.2833 247° West 460 529 36,000  Level Anchorage Center
10:15 59.7667 -170.5333 255° West 450 518 36,000  Level Anchorage Center
10:16 59.7167 -170.7667 247° West 460 529 36,000  Level Anchorage Center
10:17 59.6833 -171.0167 255° West 470 541 36,000  Level Anchorage Center
10:18 59.6333 -171.2667 249° West 470 541 36,000  Level Anchorage Center
10:19 59.6000 -171.5000 254° West 460 529 36,000  Level Anchorage Center
10:20 59.5500 -171.7500 249° West 460 529 36,000  Level Anchorage Center
10:21 59.5167 -171.9833 254° West 450 518 36,000  Level Anchorage Center
10:22 59.4667 -172.2167 247° West 460 529 36,000  Level Anchorage Center
10:23 59.4167 -172.4500 247° West 460 529 36,000  Level Anchorage Center
10:24 59.3667 -172.6833 247° West 460 529 36,000  Level Anchorage Center
10:25 59.3167 -172.9333 249° West 460 529 36,000  Level Anchorage Center
10:26 59.2667 -173.1667 247° West 460 529 36,000  Level Anchorage Center
10:27 59.2167 -173.4000 247° West 460 529 36,000  Level Anchorage Center
10:28 59.1667 -173.6333 247° West 470 541 36,000  Level Anchorage Center
10:29 59.1167 -173.8667 247° West 460 529 36,000  Level Anchorage Center
10:30 59.0667 -174.1000 247° West 460 529 36,000  Level Anchorage Center
10:31 59.0167 -174.3333 247° West 460 529 36,000  Level Anchorage Center
10:32 58.9667 -174.5500 246° West 460 529 36,000  Level Anchorage Center
10:33 58.9167 -174.7833 248° West 460 529 36,000  Level Anchorage Center
10:34 58.8667 -175.0167 248° West 460 529 36,000  Level Anchorage Center
10:35 58.8167 -175.2500 248° West 460 529 36,000  Level Anchorage Center
10:36 58.7667 -175.4667 246° West 460 529 36,000  Level Anchorage Center
10:37 58.7000 -175.7000 241° Southwest 470 541 36,000  Level Anchorage Center
10:38 58.6500 -175.9333 248° West 470 541 36,000  Level Anchorage Center
10:39 58.6000 -176.1500 246° West 460 529 36,000  Level Anchorage Center
10:40 58.5500 -176.3333 242° Southwest 460 529 36,000  Level Anchorage Center
10:41 58.5000 -176.5667 248° West 460 529 36,000  Level Anchorage Center
10:42 58.4500 -176.7833 246° West 470 541 36,000  Level Anchorage Center
10:43 58.4000 -177.0000 246° West 460 529 36,000  Level Anchorage Center
10:44 58.3333 -177.2333 242° Southwest 460 529 36,000  Level Anchorage Center
10:45 58.2833 -177.4500 246° West 460 529 36,000  Level Anchorage Center
10:48 58.1888 -177.8249 245° Southwest  Level FlightAware Approximate
10:55 57.8144 -179.2508 244° Southwest  Level FlightAware Approximate
10:56 57.7596 -179.4521 243° Southwest  Level FlightAware Approximate
10:56 57.6667 -179.8667 242° Southwest 480 552 36,000  Level Anchorage Center
10:57 57.7045 -179.6527 243° Southwest  Level FlightAware Approximate
10:58 57.6491 -179.8528 243° Southwest  Level FlightAware Approximate
10:59 57.5934 -180.0522 243° Southwest  Level FlightAware Approximate
11:00 57.5373 -180.2510 242° Southwest  Level FlightAware Approximate
11:01 57.4810 -180.4492 242° Southwest  Level FlightAware Approximate
11:02 57.2716 -181.2315 241° Southwest 480 552 36,000  Level FlightAware Transoceanic
11:03 57.2044 -181.4561 241° Southwest 480 552 36,000  Level FlightAware Transoceanic
11:04 57.1367 -181.6799 241° Southwest 480 552 36,000  Level FlightAware Transoceanic
11:05 57.0687 -181.9029 241° Southwest 480 552 36,000  Level FlightAware Transoceanic
11:05 57.0500 178.0500 241° Southwest 488 562 36,000  Level Anchorage Center
11:06 57.0002 -182.1251 240° Southwest 480 552 36,000  Level FlightAware Transoceanic
11:07 56.9314 -182.3464 240° Southwest 480 552 36,000  Level FlightAware Transoceanic
11:08 56.8621 -182.5669 240° Southwest 480 552 36,000  Level FlightAware Transoceanic
11:08 56.8333 177.3500 240° Southwest 492 566 36,000  Level Anchorage Center
11:09 56.7925 -182.7866 240° Southwest 480 552 36,000  Level FlightAware Transoceanic
11:10 56.7225 -183.0055 240° Southwest 480 552 36,000  Level FlightAware Transoceanic
11:11 56.6370 176.7400 239° Southwest 488 562 36,000  Level FlightAware Transoceanic
11:12 56.5668 176.5245 239° Southwest 488 562 36,000  Level FlightAware Transoceanic
11:13 56.4963 176.3098 239° Southwest 488 562 36,000  Level FlightAware Transoceanic
11:14 56.4253 176.0959 239° Southwest 488 562 36,000  Level FlightAware Transoceanic
11:15 56.4159 176.0647 239° Southwest 492 566 36,000  Level FlightAware Transoceanic
11:15 56.4000 176.0000 239° Southwest 497 572 36,000  Level Anchorage Center
11:16 56.3451 175.8532 239° Southwest 492 566 36,000  Level FlightAware Transoceanic
11:17 56.2738 175.6425 239° Southwest 492 566 36,000  Level FlightAware Transoceanic
11:17 56.2500 175.5667 238° Southwest 510 587 36,000  Level Anchorage Center
11:18 56.2023 175.4327 238° Southwest 492 566 36,000  Level FlightAware Transoceanic
11:18 56.1667 175.3500 235° Southwest 490 564 36,000  Level Anchorage Center
11:19 56.1304 175.2236 238° Southwest 492 566 36,000  Level FlightAware Transoceanic
11:19 56.0833 175.1167 237° Southwest 510 587 36,000  Level Anchorage Center
11:20 56.0581 175.0152 238° Southwest 492 566 36,000  Level FlightAware Transoceanic
11:20 56.0167 174.9167 239° Southwest 500 575 36,000  Level Anchorage Center
11:21 55.9739 174.7633 238° Southwest 497 572 36,000  Level FlightAware Transoceanic
11:21 55.9333 174.7000 236° Southwest 490 564 36,000  Level Anchorage Center
11:22 55.9017 174.5598 238° Southwest 497 572 36,000  Level FlightAware Transoceanic
11:22 55.8667 174.5167 237° Southwest 490 564 36,000  Level Anchorage Center
11:23 55.8000 174.2833 243° Southwest 500 575 36,000  Level Anchorage Center
11:25 55.6500 173.8833 237° Southwest 500 575 36,000  Level Anchorage Center
11:26 55.5833 173.7167 235° Southwest 490 564 36,000  Level Anchorage Center
11:27 55.5000 173.4833 238° Southwest 500 575 36,000  Level Anchorage Center
11:28 55.4167 173.2667 236° Southwest 500 575 36,000  Level Anchorage Center
11:29 55.3500 173.0833 237° Southwest 510 587 36,000  Level Anchorage Center
11:30 55.2667 172.8500 238° Southwest 520 598 36,000  Level Anchorage Center
11:31 55.2000 172.6667 238° Southwest 510 587 36,000  Level Anchorage Center
11:32 55.1000 172.4500 231° Southwest 500 575 36,000  Level Anchorage Center
11:33 55.0333 172.2833 235° Southwest 500 575 36,000  Level Anchorage Center
11:34 54.9500 172.0667 236° Southwest 500 575 36,000  Level Anchorage Center
11:35 54.8833 171.9000 235° Southwest 490 564 36,000  Level Anchorage Center
11:36 54.8000 171.6667 238° Southwest 500 575 36,000  Level Anchorage Center
11:37 54.7167 171.4667 234° Southwest 500 575 36,000  Level Anchorage Center
11:38 54.6333 171.2833 232° Southwest 500 575 36,000  Level Anchorage Center
11:39 54.5500 171.0833 234° Southwest 500 575 36,000  Level Anchorage Center
11:40 54.4833 170.9167 235° Southwest 510 587 36,000  Level Anchorage Center
11:41 54.3833 170.7000 232° Southwest 500 575 36,000  Level Anchorage Center
11:42 54.3167 170.5333 236° Southwest 510 587 36,000  Level Anchorage Center
11:43 54.2167 170.3000 234° Southwest 550 633 36,000  Level Anchorage Center
11:44 54.1333 170.1000 235° Southwest 500 575 36,000  Level Anchorage Center
11:45 54.0500 169.9333 230° Southwest 510 587 36,000  Level Anchorage Center
11:46 53.9667 169.7333 235° Southwest 510 587 36,000  Level Anchorage Center
11:47 53.8833 169.5667 230° Southwest 510 587 36,000  Level Anchorage Center
11:48 53.8000 169.3500 237° Southwest 490 564 36,000  Level Anchorage Center
11:49 53.7167 169.1833 230° Southwest 520 598 36,000  Level Anchorage Center
11:50 53.6500 168.9667 243° Southwest 510 587 36,000  Level Anchorage Center
11:51 53.5833 168.7833 239° Southwest 510 587 36,000  Level Anchorage Center
11:52 53.5000 168.5667 237° Southwest 520 598 36,000  Level Anchorage Center
11:54 53.4333 168.3000 240° Southwest 784 902 36,000  Level Anchorage Center
11:55 53.4167 168.2333 240° Southwest 495 570 36,000  Level Anchorage Center
12:00 52.9741 167.0087 239° Southwest 784 902 36,000  Level FlightAware Transoceanic
12:01 52.9405 166.9013 239° Southwest 495 570 36,000  Level FlightAware Transoceanic
12:02 52.8712 166.7134 239° Southwest 495 570 36,000  Level FlightAware Transoceanic
12:03 52.8017 166.5262 238° Southwest 495 570 36,000  Level FlightAware Transoceanic
12:04 52.7319 166.3395 238° Southwest 495 570 36,000  Level FlightAware Transoceanic
12:04 52.7500 166.4167 238° Southwest 490 564 36,000  Level Anchorage Center
12:05 52.6618 166.1534 238° Southwest 495 570 36,000  Level FlightAware Transoceanic
12:06 52.5914 165.9679 238° Southwest 495 570 36,000  Level FlightAware Transoceanic
12:07 52.5207 165.7830 238° Southwest 495 570 36,000  Level FlightAware Transoceanic
12:08 52.4497 165.5988 238° Southwest 495 570 36,000  Level FlightAware Transoceanic
12:09 52.3784 165.4151 237° Southwest 495 570 36,000  Level FlightAware Transoceanic
12:10 52.2630 165.1434 237° Southwest 490 564 36,000  Level FlightAware Transoceanic
12:11 52.1923 164.9638 237° Southwest 490 564 36,000  Level FlightAware Transoceanic
12:12 52.1214 164.7848 237° Southwest 490 564 36,000  Level FlightAware Transoceanic
12:13 52.0502 164.6063 237° Southwest 490 564 36,000  Level FlightAware Transoceanic
12:13 52.0667 164.6500 237° Southwest 481 554 36,000  Level Anchorage Center
12:14 51.9787 164.4285 237° Southwest 490 564 36,000  Level FlightAware Transoceanic
12:15 51.9070 164.2511 237° Southwest 490 564 36,000  Level FlightAware Transoceanic
12:16 51.8349 164.0744 237° Southwest 490 564 36,000  Level FlightAware Transoceanic
12:17 51.7626 163.8982 236° Southwest 490 564 36,000  Level FlightAware Transoceanic
12:18 51.6901 163.7226 236° Southwest 490 564 36,000  Level FlightAware Transoceanic
12:18 51.6500 163.6500 236° Southwest 477 549 36,000  Level Anchorage Center
12:19 51.6309 163.5821 236° Southwest 481 554 36,000  Level FlightAware Transoceanic
12:20 51.5574 163.4061 236° Southwest 481 554 36,000  Level FlightAware Transoceanic
12:21 51.4835 163.2307 236° Southwest 481 554 36,000  Level FlightAware Transoceanic
12:22 51.4094 163.0558 236° Southwest 481 554 36,000  Level FlightAware Transoceanic
12:23 51.3351 162.8816 236° Southwest 481 554 36,000  Level FlightAware Transoceanic
12:23 51.3500 162.9333 236° Southwest 469 540 36,000  Level Anchorage Center
12:24 51.2181 162.6260 236° Southwest 477 549 36,000  Level FlightAware Transoceanic
12:25 51.1452 162.4572 235° Southwest 477 549 36,000  Level FlightAware Transoceanic
12:26 51.0721 162.2890 235° Southwest 477 549 36,000  Level FlightAware Transoceanic
12:27 50.9988 162.1213 235° Southwest 477 549 36,000  Level FlightAware Transoceanic
12:28 50.9252 161.9541 235° Southwest 477 549 36,000  Level FlightAware Transoceanic
12:29 50.8423 161.7662 235° Southwest 469 540 36,000  Level FlightAware Transoceanic
12:30 50.7689 161.6015 235° Southwest 469 540 36,000  Level FlightAware Transoceanic
12:31 50.6952 161.4374 235° Southwest 469 540 36,000  Level FlightAware Transoceanic
12:32 50.6212 161.2737 234° Southwest 469 540 36,000 900 Level FlightAware Transoceanic
12:32 50.6333 161.3000 234° Southwest 469 540 37,000  Climbing Anchorage Center
12:33 50.5471 161.1106 234° Southwest 469 540 36,000 -540 Descending FlightAware Transoceanic
12:34 50.4727 160.9480 234° Southwest 469 540 36,000  Level FlightAware Transoceanic
12:35 50.3981 160.7860 234° Southwest 469 540 36,000  Level FlightAware Transoceanic
12:36 50.3232 160.6244 234° Southwest 469 540 36,000  Level FlightAware Transoceanic
12:37 50.2482 160.4633 234° Southwest 469 540 36,000 600 Level FlightAware Transoceanic
12:37 50.2000 160.3833 234° Southwest 459 528 37,000 960 Climbing Anchorage Center
12:38 50.1791 160.3156 234° Southwest 469 540 37,000  Level FlightAware Transoceanic
12:39 50.1026 160.1534 234° Southwest 469 540 37,000  Level FlightAware Transoceanic
12:40 50.0258 159.9917 233° Southwest 469 540 37,000  Level FlightAware Transoceanic
12:41 49.9489 159.8305 233° Southwest 469 540 37,000  Level FlightAware Transoceanic
12:41 49.9167 159.7500 232° Southwest 458 527 37,000  Level Anchorage Center
12:42 49.8717 159.6698 233° Southwest 469 540 37,000  Level FlightAware Transoceanic
12:43 49.7979 159.5208 234° Southwest 459 528 37,000  Level FlightAware Transoceanic
12:44 49.7167 159.3500 233° Southwest 459 528 37,000  Level FlightAware Transoceanic
12:45 49.6412 159.1959 233° Southwest 459 528 37,000  Level FlightAware Transoceanic
12:46 49.5655 159.0422 233° Southwest 459 528 37,000  Level FlightAware Transoceanic
12:47 49.4896 158.8891 233° Southwest 458 527 37,000  Level FlightAware Transoceanic
12:48 49.4135 158.7364 232° Southwest 458 527 37,000  Level FlightAware Transoceanic
12:49 49.3372 158.5841 232° Southwest 458 527 37,000  Level FlightAware Transoceanic
12:50 49.2607 158.4324 232° Southwest 458 527 37,000  Level FlightAware Transoceanic
12:51 49.1839 158.2811 232° Southwest 458 527 37,000  Level FlightAware Transoceanic
12:52 49.1070 158.1303 232° Southwest 458 527 37,000  Level FlightAware Transoceanic
12:53 49.0299 157.9799 232° Southwest 458 527 37,000  Level FlightAware Transoceanic
12:54 48.9527 157.8301 232° Southwest 458 527 37,000  Level FlightAware Transoceanic
12:55 48.8752 157.6806 232° Southwest 458 527 37,000  Level FlightAware Transoceanic
12:56 48.7975 157.5317 232° Southwest 458 527 37,000  Level FlightAware Transoceanic
12:57 48.7196 157.3832 231° Southwest 458 527 37,000  Level FlightAware Transoceanic
12:58 48.6416 157.2352 231° Southwest 458 527 37,000  Level FlightAware Transoceanic
12:59 48.5633 157.0876 231° Southwest 458 527 37,000  Level FlightAware Transoceanic
13:00 48.4849 156.9405 231° Southwest 458 527 37,000  Level FlightAware Transoceanic
13:01 48.4063 156.7938 231° Southwest 458 527 37,000  Level FlightAware Transoceanic
13:02 48.3274 156.6476 231° Southwest 458 527 37,000  Level FlightAware Transoceanic
13:03 48.2485 156.5019 231° Southwest 458 527 37,000  Level FlightAware Transoceanic
13:04 48.1693 156.3566 231° Southwest 458 527 37,000  Level FlightAware Transoceanic
13:05 48.0899 156.2117 231° Southwest 458 527 37,000  Level FlightAware Transoceanic
13:06 48.0104 156.0673 230° Southwest 458 527 37,000  Level FlightAware Transoceanic
13:07 47.9307 155.9233 230° Southwest 458 527 37,000  Level FlightAware Transoceanic
13:08 47.8508 155.7798 230° Southwest 458 527 37,000  Level FlightAware Transoceanic
13:09 47.7707 155.6367 230° Southwest 458 527 37,000  Level FlightAware Transoceanic
13:10 47.6904 155.4941 230° Southwest 458 527 37,000  Level FlightAware Transoceanic
13:11 47.6100 155.3519 230° Southwest 458 527 37,000  Level FlightAware Transoceanic
13:12 47.5294 155.2101 230° Southwest 458 527 37,000  Level FlightAware Transoceanic
13:13 47.4486 155.0688 230° Southwest 458 527 37,000  Level FlightAware Transoceanic
13:14 47.3676 154.9279 230° Southwest 458 527 37,000  Level FlightAware Transoceanic
13:15 47.2865 154.7874 230° Southwest 458 527 37,000  Level FlightAware Transoceanic
13:16 47.2052 154.6474 229° Southwest 458 527 37,000  Level FlightAware Transoceanic
13:17 47.1238 154.5078 229° Southwest 458 527 37,000  Level FlightAware Transoceanic
13:18 47.0421 154.3686 229° Southwest 458 527 37,000  Level FlightAware Transoceanic
13:19 46.9603 154.2299 229° Southwest 458 527 37,000  Level FlightAware Transoceanic
13:20 46.8783 154.0915 229° Southwest 458 527 37,000  Level FlightAware Transoceanic
13:21 46.7962 153.9536 229° Southwest 458 527 37,000  Level FlightAware Transoceanic
13:22 46.7139 153.8161 229° Southwest 458 527 37,000  Level FlightAware Transoceanic
13:23 46.6314 153.6791 229° Southwest 458 527 37,000  Level FlightAware Transoceanic
13:24 46.5488 153.5424 229° Southwest 458 527 37,000  Level FlightAware Transoceanic
13:25 46.4660 153.4062 229° Southwest 458 527 37,000  Level FlightAware Transoceanic
13:26 46.3831 153.2704 228° Southwest 458 527 37,000  Level FlightAware Transoceanic
13:27 46.2999 153.1350 228° Southwest 458 527 37,000  Level FlightAware Transoceanic
13:28 46.2195 153.0046 228° Southwest  Level FlightAware Approximate
13:29 46.1390 152.8745 228° Southwest  Level FlightAware Approximate
13:30 46.1413 152.8798 228° Southwest  Level FlightAware Approximate
13:31 46.0601 152.7508 228° Southwest  Level FlightAware Approximate
13:32 45.9788 152.6222 228° Southwest  Level FlightAware Approximate
13:33 45.8973 152.4940 228° Southwest  Level FlightAware Approximate
13:34 45.8156 152.3661 228° Southwest  Level FlightAware Approximate
13:35 45.7339 152.2386 227° Southwest  Level FlightAware Approximate
13:36 45.6519 152.1115 227° Southwest  Level FlightAware Approximate
13:37 45.5699 151.9848 227° Southwest  Level FlightAware Approximate
13:38 45.4877 151.8584 227° Southwest  Level FlightAware Approximate
13:39 45.4053 151.7324 227° Southwest  Level FlightAware Approximate
13:40 45.3228 151.6068 227° Southwest  Level FlightAware Approximate
13:41 45.2402 151.4815 227° Southwest  Level FlightAware Approximate
13:42 45.1575 151.3566 227° Southwest  Level FlightAware Approximate
13:43 45.0746 151.2321 227° Southwest  Level FlightAware Approximate
13:44 44.9915 151.1079 227° Southwest  Level FlightAware Approximate
13:45 44.9084 150.9841 227° Southwest  Level FlightAware Approximate
13:46 44.8251 150.8606 226° Southwest  Level FlightAware Approximate
13:47 44.7416 150.7375 226° Southwest  Level FlightAware Approximate
13:48 44.6581 150.6148 226° Southwest  Level FlightAware Approximate
13:49 44.5744 150.4924 226° Southwest  Level FlightAware Approximate
13:50 44.4906 150.3703 226° Southwest  Level FlightAware Approximate
13:51 44.4066 150.2487 226° Southwest  Level FlightAware Approximate
13:52 44.3226 150.1273 226° Southwest  Level FlightAware Approximate
13:53 44.2383 150.0063 226° Southwest  Level FlightAware Approximate
13:54 44.1540 149.8857 226° Southwest  Level FlightAware Approximate
13:55 44.0695 149.7654 226° Southwest  Level FlightAware Approximate
13:56 43.9850 149.6454 226° Southwest  Level FlightAware Approximate
13:57 43.9002 149.5258 226° Southwest  Level FlightAware Approximate
13:58 43.8154 149.4065 225° Southwest  Level FlightAware Approximate
13:59 43.7304 149.2876 225° Southwest  Level FlightAware Approximate
13:59 43.3850 148.8090 225° Southwest 452 520 37,000  Level FlightAware
14:00 43.6454 149.1690 225° Southwest  Level FlightAware Approximate
14:00 43.3170 148.7160 225° Southwest 451 519 37,000  Level FlightAware
14:01 43.2510 148.6260 225° Southwest 444 511 37,000  Level FlightAware
14:01 43.1920 148.5460 225° Southwest 444 511 37,000  Level FlightAware
14:02 43.1330 148.4650 225° Southwest 443 510 37,000  Level FlightAware
14:03 43.0740 148.3840 225° Southwest 448 516 37,000  Level FlightAware
14:03 43.0080 148.2950 225° Southwest 442 509 37,000  Level FlightAware
14:04 42.9490 148.2160 224° Southwest 446 513 37,000  Level FlightAware
14:05 42.8860 148.1320 224° Southwest 440 506 37,000  Level FlightAware
14:05 42.8240 148.0490 224° Southwest 439 505 37,000  Level FlightAware
14:06 42.7590 147.9610 225° Southwest 446 513 37,000  Level FlightAware
14:07 42.7020 147.8860 224° Southwest 448 516 37,000  Level FlightAware
14:07 42.6400 147.8030 225° Southwest 450 518 37,000  Level FlightAware
14:08 42.5730 147.7160 224° Southwest 451 519 37,000  Level FlightAware
14:09 42.5130 147.6360 225° Southwest 450 518 37,000  Level FlightAware
14:10 42.4450 147.5470 224° Southwest 450 518 37,000  Level FlightAware
14:10 42.3850 147.4690 224° Southwest 449 517 37,000  Level FlightAware
14:11 42.3270 147.3920 224° Southwest 449 517 37,000  Level FlightAware
14:12 42.2590 147.3020 224° Southwest 451 519 37,000  Level FlightAware
14:12 42.1990 147.2250 224° Southwest 452 520 37,000  Level FlightAware
14:13 42.1310 147.1360 224° Southwest 452 520 37,000  Level FlightAware
14:14 42.0710 147.0580 224° Southwest 451 519 37,000  Level FlightAware
14:14 42.0110 146.9810 224° Southwest 451 519 37,000  Level FlightAware
14:15 41.9430 146.8930 224° Southwest 444 511 37,000  Level FlightAware
14:16 41.8970 146.8040 235° Southwest 436 502 37,000  Level FlightAware
14:17 41.8590 146.6930 245° Southwest 438 504 37,000  Level FlightAware
14:17 41.8260 146.5940 246° West 439 505 37,000  Level FlightAware
14:18 41.7930 146.4960 246° West 440 506 37,000  Level FlightAware
14:19 41.7540 146.3820 245° Southwest 437 503 37,000  Level FlightAware
14:19 41.7190 146.2830 245° Southwest 437 503 37,000  Level FlightAware
14:20 41.6850 146.1850 245° Southwest 437 503 37,000  Level FlightAware
14:21 41.6470 146.0740 245° Southwest 437 503 37,000  Level FlightAware
14:21 41.6130 145.9760 245° Southwest 435 501 37,000  Level FlightAware
14:22 41.5740 145.8650 245° Southwest 434 499 37,000  Level FlightAware
14:23 41.5290 145.7380 245° Southwest 433 498 37,000  Level FlightAware
14:24 41.4950 145.6410 245° Southwest 432 497 37,000  Level FlightAware
14:25 41.4560 145.5310 245° Southwest 431 496 37,000  Level FlightAware
14:25 41.4220 145.4360 245° Southwest 430 495 37,000  Level FlightAware
14:26 41.3830 145.3280 244° Southwest 430 495 37,000  Level FlightAware
14:27 41.3490 145.2310 245° Southwest 429 494 37,000  Level FlightAware
14:27 41.3140 145.1350 244° Southwest 427 491 37,000  Level FlightAware
14:28 41.2760 145.0300 244° Southwest 422 486 37,000  Level FlightAware
14:29 41.2420 144.9360 244° Southwest 418 481 37,000  Level FlightAware
14:29 41.2050 144.8340 244° Southwest 419 482 37,000  Level FlightAware
14:30 41.1700 144.7380 244° Southwest 418 481 37,000  Level FlightAware
14:31 41.1370 144.6470 244° Southwest 414 476 37,000  Level FlightAware
14:32 41.0990 144.5450 244° Southwest 414 476 37,000  Level FlightAware
14:32 41.0650 144.4520 244° Southwest 418 481 37,000  Level FlightAware
14:33 41.0320 144.3610 244° Southwest 420 483 37,000  Level FlightAware
14:34 40.9890 144.2450 244° Southwest 421 484 37,000  Level FlightAware
14:34 40.9550 144.1530 244° Southwest 422 486 37,000  Level FlightAware
14:35 40.9190 144.0590 243° Southwest 423 487 37,000  Level FlightAware
14:36 40.8800 143.9530 244° Southwest 430 495 37,000  Level FlightAware
14:36 40.8440 143.8580 243° Southwest 433 498 37,000  Level FlightAware
14:37 40.8040 143.7520 244° Southwest 435 501 37,000  Level FlightAware
14:38 40.7680 143.6570 243° Southwest 436 502 37,000 420 Level FlightAware
14:38 40.7280 143.5640 240° Southwest 435 501 37,600 660 Climbing FlightAware
14:39 40.6760 143.4640 236° Southwest 434 499 38,000 240 Climbing FlightAware
14:40 40.6310 143.3770 236° Southwest 432 497 38,000  Level FlightAware
14:41 40.5790 143.2780 235° Southwest 430 495 38,000  Level FlightAware
14:41 40.5330 143.1920 235° Southwest 431 496 38,000  Level FlightAware
14:42 40.4880 143.1050 236° Southwest 429 494 38,000  Level FlightAware
14:43 40.4370 143.0110 235° Southwest 424 488 38,000  Level FlightAware
14:43 40.3930 142.9270 235° Southwest 421 484 38,000  Level FlightAware
14:45 40.2880 142.7310 235° Southwest 422 486 38,000  Level FlightAware
14:46 40.2420 142.6440 235° Southwest 425 489 38,000  Level FlightAware
14:46 40.1890 142.5450 235° Southwest 422 486 38,000  Level FlightAware
14:47 40.1380 142.4510 235° Southwest 422 486 38,000  Level FlightAware
14:48 40.0940 142.3700 235° Southwest 424 488 38,000  Level FlightAware
14:49 40.0470 142.2830 235° Southwest 423 487 38,000  Level FlightAware
14:49 39.9970 142.1900 235° Southwest 422 486 38,000  Level FlightAware
14:50 39.9520 142.1090 234° Southwest 424 488 38,000  Level FlightAware
14:51 39.9050 142.0230 235° Southwest 421 484 38,000  Level FlightAware
14:51 39.8610 141.9420 235° Southwest 422 486 38,000  Level FlightAware
14:52 39.8080 141.8410 236° Southwest 419 482 38,000  Level FlightAware
14:53 39.7620 141.7530 236° Southwest 416 479 38,000  Level FlightAware
14:53 39.7180 141.6700 235° Southwest 415 478 38,000  Level FlightAware
14:54 39.6740 141.5860 236° Southwest 413 475 38,000  Level FlightAware
14:55 39.6250 141.4940 235° Southwest 411 473 38,000  Level FlightAware
14:56 39.5820 141.4110 236° Southwest 411 473 38,000  Level FlightAware
14:56 39.5320 141.3190 235° Southwest 411 473 38,000  Level FlightAware
14:57 39.4890 141.2370 236° Southwest 411 473 38,000  Level FlightAware
14:58 39.4450 141.1550 235° Southwest 412 474 38,000  Level FlightAware
14:58 39.3880 141.0690 229° Southwest 414 476 38,000  Level FlightAware
14:59 39.3350 140.9960 227° Southwest 420 483 38,000  Level FlightAware
15:00 39.2750 140.9140 227° Southwest 414 476 38,000  Level FlightAware
15:00 39.2220 140.8410 227° Southwest 414 476 38,000  Level FlightAware
15:01 39.1620 140.7580 227° Southwest 411 473 38,000  Level FlightAware
15:02 39.1260 140.6730 241° Southwest 409 471 38,000  Level FlightAware
15:02 39.0940 140.5980 241° Southwest 408 470 38,000  Level FlightAware
15:03 39.0460 140.4920 240° Southwest 408 470 38,000  Level FlightAware
15:04 39.0090 140.4060 241° Southwest 410 472 38,000  Level FlightAware
15:05 38.9680 140.3090 241° Southwest 410 472 38,000  Level FlightAware
15:05 38.9320 140.2250 241° Southwest 410 472 38,000  Level FlightAware
15:06 38.8950 140.1390 241° Southwest 411 473 38,000  Level FlightAware
15:07 38.8540 140.0420 242° Southwest 412 474 38,000  Level FlightAware
15:07 38.8170 139.9570 241° Southwest 408 470 38,000  Level FlightAware
15:08 38.7790 139.8690 241° Southwest 410 472 38,000  Level FlightAware
15:11 38.6714 139.5267 248° West  Level Estimated
15:11 38.6400 139.5470 248° West 405 466 38,000  Level FlightAware
15:11 38.5990 139.4530 241° Southwest 411 473 38,000  Level FlightAware
15:12 38.5660 139.3780 241° Southwest 411 473 38,000  Level FlightAware
15:13 38.5280 139.2930 240° Southwest 412 474 38,000  Level FlightAware
15:14 38.4830 139.1880 241° Southwest 414 476 38,000  Level FlightAware
15:14 38.4490 139.1130 240° Southwest 414 476 38,000  Level FlightAware
15:15 38.4040 139.0100 241° Southwest 413 475 38,000  Level FlightAware
15:16 38.3640 138.9200 240° Southwest 413 475 38,000  Level FlightAware
15:16 38.3260 138.8350 240° Southwest 412 474 38,000  Level FlightAware
15:17 38.2900 138.7540 240° Southwest 412 474 38,000  Level FlightAware
15:18 38.2560 138.6790 240° Southwest 413 475 38,000  Level FlightAware
15:18 38.2030 138.5600 240° Southwest 411 473 38,000  Level FlightAware
15:19 38.1710 138.4880 241° Southwest 411 473 38,000  Level FlightAware
15:20 38.1260 138.3880 240° Southwest 409 471 38,000  Level FlightAware
15:21 38.0870 138.3080 238° Southwest 411 473 38,000  Level FlightAware
15:21 38.0490 138.2320 238° Southwest 410 472 38,000  Level FlightAware
15:22 38.0000 138.1350 237° Southwest 408 470 38,000  Level FlightAware
15:23 37.9640 138.0610 238° Southwest 408 470 38,000  Level FlightAware
15:23 37.9220 137.9780 237° Southwest 408 470 38,000  Level FlightAware
15:24 37.8740 137.8810 238° Southwest 406 467 38,000  Level FlightAware
15:25 37.8380 137.8090 238° Southwest 405 466 38,000  Level FlightAware
15:25 37.7890 137.7110 238° Southwest 405 466 38,000  Level FlightAware
15:26 37.7480 137.6310 237° Southwest 405 466 38,000  Level FlightAware
15:27 37.7050 137.5450 238° Southwest 405 466 38,000  Level FlightAware
15:28 37.6600 137.4570 237° Southwest 406 467 38,000  Level FlightAware
15:28 37.6090 137.3560 238° Southwest 407 468 38,000  Level FlightAware
15:29 37.5680 137.2760 237° Southwest 407 468 38,000  Level FlightAware
15:30 37.5320 137.2050 237° Southwest 407 468 38,000 60 Level FlightAware
15:31 37.4800 137.1040 237° Southwest 410 472 38,100 420 Climbing FlightAware
15:31 37.4490 137.0420 238° Southwest 414 476 38,600 960 Climbing FlightAware
15:32 37.4010 136.9500 237° Southwest 419 482 39,300 900 Climbing FlightAware
15:33 37.3560 136.8620 237° Southwest 424 488 39,900 420 Climbing FlightAware
15:33 37.3010 136.7560 237° Southwest 420 483 40,000 60 Climbing FlightAware
15:34 37.2590 136.6740 237° Southwest 420 483 40,000  Level FlightAware
15:35 37.2100 136.5810 237° Southwest 419 482 40,000  Level FlightAware
15:35 37.1670 136.4990 237° Southwest 419 482 40,000  Level FlightAware
15:36 37.1190 136.4060 237° Southwest 419 482 40,000  Level FlightAware
15:37 37.0770 136.3250 237° Southwest 418 481 40,000  Level FlightAware
15:38 37.0340 136.2440 236° Southwest 418 481 40,000  Level FlightAware
15:38 36.9860 136.1530 237° Southwest 416 479 40,000  Level FlightAware
15:39 36.9420 136.0690 237° Southwest 415 478 40,000  Level FlightAware
15:40 36.8950 135.9820 236° Southwest 415 478 40,000  Level FlightAware
15:40 36.8570 135.9100 237° Southwest 414 476 40,000  Level FlightAware
15:41 36.8090 135.8190 237° Southwest 414 476 40,000  Level FlightAware
15:42 36.7610 135.7290 236° Southwest 416 479 40,000  Level FlightAware
15:42 36.7190 135.6500 236° Southwest 415 478 40,000  Level FlightAware
15:43 36.6700 135.5580 236° Southwest 415 478 40,000  Level FlightAware
15:44 36.6280 135.4800 236° Southwest 414 476 40,000  Level FlightAware
15:45 36.5840 135.4000 236° Southwest 413 475 40,000  Level FlightAware
15:45 36.5370 135.3130 236° Southwest 411 473 40,000  Level FlightAware
15:46 36.4940 135.2330 236° Southwest 410 472 40,000  Level FlightAware
15:47 36.4510 135.1550 236° Southwest 411 473 40,000  Level FlightAware
15:47 36.4020 135.0640 236° Southwest 410 472 40,000  Level FlightAware
15:48 36.3600 134.9860 236° Southwest 410 472 40,000  Level FlightAware
15:49 36.3110 134.8970 236° Southwest 410 472 40,000  Level FlightAware
15:49 36.2710 134.8240 236° Southwest 410 472 40,000  Level FlightAware
15:50 36.2240 134.7380 236° Southwest 410 472 40,000  Level FlightAware
15:52 36.1170 134.5440 236° Southwest 414 476 40,000  Level FlightAware
15:53 36.0680 134.4560 235° Southwest 415 478 40,000  Level FlightAware
15:53 36.0250 134.3780 236° Southwest 415 478 40,000  Level FlightAware
15:54 35.9840 134.3040 236° Southwest 416 479 40,000  Level FlightAware
15:55 35.9370 134.2210 235° Southwest 417 480 40,000  Level FlightAware
15:55 35.8890 134.1340 236° Southwest 417 480 40,000  Level FlightAware
15:56 35.8390 134.0450 235° Southwest 417 480 40,000  Level FlightAware
15:57 35.7950 133.9670 235° Southwest 417 480 40,000  Level FlightAware
15:57 35.7510 133.8890 235° Southwest 416 479 40,000  Level FlightAware
15:58 35.7020 133.8020 235° Southwest 416 479 40,000  Level FlightAware
15:59 35.6580 133.7250 235° Southwest 415 478 40,000  Level FlightAware
15:59 35.6220 133.6610 235° Southwest 415 478 40,000  Level FlightAware
16:00 35.5540 133.5410 235° Southwest 415 478 40,000  Level FlightAware
16:01 35.5050 133.4550 235° Southwest 414 476 40,000  Level FlightAware
16:02 35.4660 133.3870 235° Southwest 413 475 40,000  Level FlightAware
16:02 35.4180 133.3040 235° Southwest 410 472 40,000  Level FlightAware
16:05 35.3301 133.0201 232° Southwest  Level Estimated
16:06 35.3223 132.8723 266° West  Level FlightAware Approximate
16:07 35.2989 132.7399 231° Southwest  Level FlightAware Approximate
16:08 35.2224 132.6253 231° Southwest  Level FlightAware Approximate
16:09 35.1459 132.5110 231° Southwest  Level FlightAware Approximate
16:10 35.0692 132.3968 231° Southwest  Level FlightAware Approximate
16:11 34.9925 132.2829 231° Southwest  Level FlightAware Approximate
16:12 34.9156 132.1692 231° Southwest  Level FlightAware Approximate
16:13 34.8387 132.0556 230° Southwest  Level FlightAware Approximate
16:14 34.7616 131.9424 230° Southwest  Level FlightAware Approximate
16:15 34.6844 131.8293 230° Southwest  Level FlightAware Approximate
16:16 34.6071 131.7164 230° Southwest  Level FlightAware Approximate
16:17 34.5298 131.6037 230° Southwest  Level FlightAware Approximate
16:18 34.4523 131.4913 230° Southwest  Level FlightAware Approximate
16:19 34.3747 131.3791 230° Southwest  Level FlightAware Approximate
16:20 34.2970 131.2670 230° Southwest  Level FlightAware Approximate
16:20 34.2670 131.3520 230° Southwest 395 455 40,000  Level FlightAware
16:21 34.2230 131.2790 234° Southwest 392 451 40,000  Level FlightAware
16:21 34.1740 131.1990 234° Southwest 391 450 40,000  Level FlightAware
16:22 34.1310 131.1280 234° Southwest 389 448 40,000  Level FlightAware
16:23 34.0820 131.0480 234° Southwest 388 447 40,000  Level FlightAware
16:24 34.0390 130.9770 234° Southwest 387 445 40,000  Level FlightAware
16:24 33.9980 130.9100 234° Southwest 387 445 40,000  Level FlightAware
16:25 33.9490 130.8320 233° Southwest 386 444 40,000  Level FlightAware
16:26 33.9090 130.7650 234° Southwest 385 443 40,000  Level FlightAware
16:26 33.8580 130.6830 233° Southwest 387 445 40,000  Level FlightAware
16:27 33.8140 130.6120 233° Southwest 388 447 40,000  Level FlightAware
16:28 33.7680 130.5370 234° Southwest 393 452 40,000  Level FlightAware
16:28 33.7180 130.4570 233° Southwest 394 453 40,000  Level FlightAware
16:29 33.6740 130.3870 233° Southwest 396 456 40,000  Level FlightAware
16:30 33.6250 130.3080 233° Southwest 396 456 40,000  Level FlightAware
16:31 33.5800 130.2380 232° Southwest 396 456 40,000  Level FlightAware
16:31 33.5300 130.1590 233° Southwest 398 458 40,000  Level FlightAware
16:32 33.4910 130.0890 236° Southwest 394 453 40,000  Level FlightAware
16:33 33.4600 130.0070 246° West 393 452 40,000  Level FlightAware
16:33 33.4330 129.9150 251° West 392 451 40,000  Level FlightAware
16:34 33.4090 129.8330 251° West 393 452 40,000  Level FlightAware
16:35 33.3820 129.7430 250° West 394 453 40,000  Level FlightAware
16:35 33.3570 129.6590 250° West 392 451 40,000  Level FlightAware
16:36 33.3340 129.5830 250° West 392 451 40,000  Level FlightAware
16:37 33.3080 129.4950 251° West 392 451 40,000  Level FlightAware
16:38 33.2810 129.4050 250° West 392 451 40,000  Level FlightAware
16:38 33.2540 129.3160 250° West 393 452 40,000  Level FlightAware
16:39 33.2290 129.2330 250° West 393 452 40,000  Level FlightAware
16:40 33.2070 129.1600 250° West 394 453 40,000  Level FlightAware
16:41 33.1720 129.0430 250° West 394 453 40,000  Level FlightAware
16:42 33.1400 128.9370 250° West 396 456 40,000  Level FlightAware
16:42 33.1180 128.8670 249° West 396 456 40,000  Level FlightAware
16:43 33.0970 128.7970 250° West 396 456 40,000  Level FlightAware
16:44 33.0760 128.7280 250° West 396 456 40,000  Level FlightAware
16:44 33.0540 128.6580 249° West 396 456 40,000  Level FlightAware
16:45 33.0280 128.5700 251° West 396 456 40,000  Level FlightAware
16:46 33.0060 128.5010 249° West 396 456 40,000  Level FlightAware
16:46 32.9850 128.4310 250° West 396 456 40,000  Level FlightAware
16:47 32.9640 128.3610 250° West 396 456 40,000  Level FlightAware
16:48 32.9430 128.2910 250° West 396 456 40,000  Level FlightAware
16:49 32.9160 128.2040 250° West 396 456 40,000  Level FlightAware
16:49 32.8950 128.1340 250° West 396 456 40,000  Level FlightAware
16:50 32.8730 128.0650 249° West 396 456 40,000  Level FlightAware
16:51 32.8520 127.9950 250° West 396 456 40,000 -600 Level FlightAware
16:53 32.7849 127.7238 254° West  Level Estimated
16:54 32.7505 127.5861 254° West  Level Estimated
16:55 32.7160 127.4484 253° West  Level Estimated
16:56 32.6813 127.3109 253° West  Level Estimated
16:57 32.6465 127.1735 253° West  Level Estimated
16:58 32.6116 127.0362 253° West  Level Estimated
16:59 32.5765 126.8990 253° West  Level Estimated
17:00 32.5412 126.7619 253° West  Level Estimated
17:01 32.5058 126.6249 253° West  Level Estimated
17:02 32.4702 126.4880 253° West  Level Estimated
17:03 32.4346 126.3513 253° West  Level Estimated
17:04 32.3987 126.2146 253° West  Level Estimated
17:05 32.3627 126.0780 253° West  Level Estimated
17:06 32.3266 125.9416 253° West  Level Estimated
17:07 32.2903 125.8053 253° West  Level Estimated
17:08 32.2538 125.6690 252° West  Level Estimated
17:09 32.2173 125.5329 252° West  Level Estimated
17:10 32.1805 125.3969 252° West  Level Estimated
17:11 32.1437 125.2610 252° West  Level Estimated
17:12 32.1066 125.1252 252° West  Level Estimated
17:13 32.0695 124.9895 252° West  Level Estimated
17:14 32.0322 124.8540 252° West  Level Estimated
17:15 31.9947 124.7185 252° West  Level Estimated
17:16 31.9571 124.5832 252° West  Level Estimated
17:17 31.9194 124.4479 252° West  Level Estimated
17:18 31.8815 124.3128 252° West  Level Estimated
17:19 31.8435 124.1778 252° West  Level Estimated
17:20 31.8053 124.0429 252° West  Level Estimated
17:21 31.7670 123.9081 252° West  Level Estimated
17:22 31.7285 123.7734 251° West  Level Estimated
17:23 31.6900 123.6389 251° West  Level Estimated
17:24 31.6512 123.5044 251° West  Level Estimated
17:25 31.6124 123.3701 251° West  Level Estimated
17:26 31.5733 123.2359 251° West  Level Estimated
17:27 31.5342 123.1017 251° West  Level Estimated
17:28 31.4949 122.9677 251° West  Level Estimated
17:29 31.4555 122.8338 251° West  Level Estimated
17:30 31.4159 122.7001 251° West  Level Estimated
17:31 31.3762 122.5664 251° West  Level Estimated
17:32 31.3363 122.4329 251° West  Level Estimated
17:32 31.3340 122.6150 251° West 360 414 15,900  Level FlightAware
17:33 31.2963 122.2994 251° West  Level Estimated
17:33 31.3210 122.5370 259° West 360 414 15,900  Level FlightAware
17:33 31.3010 122.4340 257° West 358 412 13,700 -2,280 Descending FlightAware
17:34 31.2940 122.3370 265° West 358 412 12,000 -2,700 Descending FlightAware
17:35 31.3180 122.3090 315° West 344 396 10,800 -2,220 Descending FlightAware
17:35 31.3330 122.2400 284° West 336 387 10,000 -780 Descending FlightAware
17:36 31.3420 122.1980 284° West 336 387 10,000  Level FlightAware
17:36 31.3520 122.1530 285° West 336 387 10,000 -840 Level FlightAware
17:36 31.3590 122.1270 288° West 279 321 9,300 -1,380 Descending FlightAware
17:37 31.3760 122.0530 285° West 275 316 8,400 -2,220 Descending FlightAware
17:38 31.3880 122.0070 287° West 272 313 6,400 -2,940 Descending FlightAware
17:38 31.3910 121.9930 284° West 272 313 6,200 -1,080 Descending FlightAware
17:38 31.3980 121.9610 284° West 254 292 5,800 -1,380 Descending FlightAware
17:39 31.4020 121.9340 280° West 243 280 5,300 -1,560 Descending FlightAware
17:39 31.3980 121.8950 263° West 235 270 4,500 -1,500 Descending FlightAware
17:39 31.3970 121.8770 266° West 222 255 4,200 -1,080 Descending FlightAware
17:40 31.3950 121.8510 265° West 200 230 3,800 -900 Descending FlightAware
17:40 31.3910 121.8350 254° West 189 217 3,600 -1,080 Descending FlightAware
17:41 31.3810 121.8060 248° West 182 209 3,000 -1,200 Descending FlightAware
17:41 31.3720 121.7830 245° Southwest 180 207 2,500 -1,020 Descending FlightAware
17:42 31.3620 121.7570 246° West 180 207 2,100 -540 Descending FlightAware
17:42 31.3550 121.7440 238° Southwest 180 207 2,100  Level FlightAware
17:42 31.3480 121.7390 211° Southwest 171 197 2,100  Level FlightAware
17:42 31.3240 121.7320 194° South 169 194 2,100  Level FlightAware
17:43 31.2950 121.7260 190° South 169 194 2,100  Level FlightAware
17:43 31.2800 121.7410 139° Southeast 173 199 2,100  Level FlightAware
17:44 31.2560 121.7500 162° South 173 199 2,100 -540 Level FlightAware
17:44 31.2350 121.7580 162° South 167 192 1,600 -900 Descending FlightAware
17:46 31.1830 121.7780 162° South 124 143 600 -720 Descending FlightAware
17:46 31.1640 121.7850 163° South 124 143 300 -360 Descending FlightAware
17:47 31.1510 121.7900 162° South 124 143 300  Level FlightAware
17:49 31.1428 121.7924 259° West  Level Estimated
17:50 31.1428 121.7924 259° West  Level Estimated
17:51 31.1428 121.7924 259° West  Level Estimated
17:52 31.1428 121.7924 259° West  Level Estimated
17:53 31.1428 121.7924 259° West  Level Estimated
17:54 31.1428 121.7924 259° West  Level Estimated
17:55 31.1428 121.7924 259° West  Level Estimated
17:56 31.1428 121.7924 259° West  Level Estimated
17:57 31.1428 121.7924 259° West  Level Estimated
17:58 31.1428 121.7924 259° West  Level Estimated
17:59 31.1428 121.7924 259° West  Level Estimated
18:00 31.1428 121.7924 259° West  Level Estimated
18:01 31.1428 121.7924 259° West  Level Estimated
18:02 31.1428 121.7924 259° West  Level Estimated
18:03 31.1428 121.7924 259° West  Level Estimated
18:04 31.1428 121.7924 259° West  Level Estimated
18:05 31.1428 121.7924 259° West  Level Estimated
18:06 31.1428 121.7924 259° West  Level Estimated
18:07 31.1428 121.7924 259° West  Level Estimated
18:08 31.1428 121.7924 259° West  Level Estimated
18:09 31.1428 121.7924 259° West  Level Estimated